Location: LDNL
(36.4545°S, 141.6685°E)
Time: 22:24:50
(UTC+11:00)

ISS - Pass Details

Date: 15 December 2021
Orbit: 413 x 422 km, 51.6° (Epoch: 22 January)

Event Time Altitude Azimuth Distance (km) Brightness Sun altitude
Rises 21:31:44 0° 306° (NW) 2,357 0.3 -8.2°
Reaches altitude 10° 21:33:49 10° 303° (WNW) 1,498 -0.7 -8.6°
Maximum altitude 21:37:10 66° 220° (SW) 464 -3.3 -9.1°
Drops below altitude 10° 21:40:33 10° 136° (SE) 1,512 -1.0 -9.6°
Sets 21:42:40 0° 133° (SE) 2,381 0.0 -10.0°
